Hourly Data Report for January 21, 2021

TORONTO CITY
ONTARIO
Current Station Operator: ECCC - MSC

43°40'00.000" N
79°24'00.000" W
112.50 m
6158355
71508
XTO

Download Data

Hourly Data (January 2021)
Hourly Data Report for January 21, 2021
TIME
LST
Temp Definition
°C
Dew Point Definition
°C
Rel Hum Definition
%
Precip. Amount Definition
mm

Wind Dir Definition
10's deg

Wind Spd Definition
km/h
Visibility Definition
km
Stn Press Definition
kPa
Hmdx Definition


Wind Chill Definition


Weather Definition


00:00 -1.2 -6.6 66 0.0       99.46     LegendNANA
01:00 -0.8 -5.9 68 0.0       99.28     LegendNANA
02:00 -0.7 -5.5 70 0.0       99.15     LegendNANA
03:00 -0.2 -5.0 70 0.0       99.03     LegendNANA
04:00 -0.1 -4.0 75 0.1       98.84     LegendNANA
05:00 0.1 -4.0 74 0.0       98.77     LegendNANA
06:00 0.5 -4.5 69 0.0       98.63     LegendNANA
07:00 0.4 -5.6 64 0.0       98.58     LegendNANA
08:00 0.4 -5.7 63 0.0       98.63     LegendNANA
09:00 0.7 -5.1 65 0.0       98.61     LegendNANA
10:00 1.3 -4.8 64 0.0       98.62     LegendNANA
11:00 2.5 -4.3 61 0.0       98.60     LegendNANA
12:00 3.0 -4.1 60 0.0       98.51     LegendNANA
13:00 3.5 -3.8 59 0.0       98.43     LegendNANA
14:00 3.8 -3.4 59 0.0       98.40     LegendNANA
15:00 3.7 -3.5 60 0.0       98.44     LegendNANA
16:00 3.6 -3.3 60 0.0       98.44     LegendNANA
17:00 3.6 -3.2 61 0.0       98.47     LegendNANA
18:00 3.4 -2.9 63 0.0       98.49     LegendNANA
19:00 3.3 -2.8 64 0.0       98.50     LegendNANA
20:00 2.9 -2.7 66 0.0       98.49     LegendNANA
21:00 2.7 -2.9 67 0.0       98.48     LegendNANA
22:00 2.9 -2.5 67 0.0       98.49     LegendNANA
23:00 2.9 -3.1 65 0.0       98.56     LegendNANA

Notes on Data Quality.

Legend

  • E = Estimated
  • M = Missing
  • NA = Not Available*
  • [empty] = Indicates an unobserved value
Date modified: